AirNav   Everest Fuels
 
 785 users online  

4PN6 Williams Grove Heliport
Mechanicsburg, Pennsylvania, USA

GOING TO MECHANICSBURG?


FAA INFORMATION EFFECTIVE 18 JUNE 2020

Location

FAA Identifier: 4PN6
Lat/Long: 40-09-00.3280N 077-01-58.9190W
40-09.005467N 077-01.981983W
40.1500911,-77.0330331
(estimated)
Elevation: 510 ft. / 155 m (estimated)
Variation: 10W (1985)
From city: 6 miles SW of MECHANICSBURG, PA
Time zone: UTC -4 (UTC -5 during Standard Time)
Zip code: 17055

Heliport Operations

Heliport use: Private use. Permission required prior to landing
Activation date: 03/1977
Control tower: no
ARTCC: NEW YORK CENTER
FSS: WILLIAMSPORT FLIGHT SERVICE STATION
Attendance: UNATNDD
Wind indicator: yes
Segmented circle: yes

Heliport Communications

WX ASOS at CXY (9 nm NE): PHONE 717-770-0880
WX ASOS at MDT (13 nm E): 118.8 (717-944-1372)
WX ASOS at THV (16 nm SE): 119.275 (717-792-5529)

Nearby radio navigation aids

VOR radial/distance  VOR name  Freq  Var
HARr180/9.3HARRISBURG VORTAC112.5010W
RAVr230/31.3RAVINE VORTAC114.6011W
LRPr282/34.1LANCASTER VOR/DME117.3009W
SEGr198/39.0SELINSGROVE VOR/DME110.4008W
EMIr004/39.4WESTMINSTER VORTAC117.9008W

 
NDB name  Hdg/Dist  Freq  Var  ID
LATLE228/2.121911WCX -.-. -..-
ENOLA237/8.420411WMD -- -..
BELLGROVE242/27.932810WBZJ -... --.. .---

Heliport Services

Airframe service: NONE
Powerplant service: NONE
Bottled oxygen: NONE
Bulk oxygen: NONE

Runway Information

Helipad H1

Dimensions: 100 x 100 ft. / 30 x 30 m
Surface: dirt, in fair condition
Latitude: 40-09.005467N
Longitude: 077-01.981983W
Elevation: 510.0 ft.
Traffic pattern: leftleft
Markings: none, in fair condition
Runway end identifier lights: no

Heliport Ownership and Management from official FAA records

Ownership: Privately-owned
Owner: WILLIAMS GROVE INC
1 PARK AVE
MECHANICSBURG, PA 17055
Phone 717-697-8266
Manager: MORGAN HUGHES
1 PARK AVE
MECHANICSBURG, PA 17055
Phone 717-697-8266

Additional Remarks

FOR CD CTC HARRISBURG APCH AT 800-932-0712.

Instrument Procedures

There are no published instrument procedures at 4PN6.

Some nearby airports with instrument procedures:

N94 - Carlisle Airport (7 nm W)
KCXY - Capital City Airport (9 nm NE)
KMDT - Harrisburg International Airport (13 nm E)
KTHV - York Airport (16 nm SE)
N71 - Donegal Springs Airpark (21 nm E)
 
Loc | Ops | Rwys | IFR | FBO | Links
Com | Nav | Svcs | Stats | Notes
Area around 4PN6 (Williams Grove Heliport)
 
Road maps at: MapQuest Bing Google
 
Aerial photo
No photo
 
Sectional chart

 
Airport distance calculator
Flying to Williams Grove Heliport? Find the distance to fly.

From to 4PN6

Sunrise and sunset
Times for 05-Jul-2020
 Local
(UTC-4)
 Zulu
(UTC)
Morning civil twilight05:1409:14
Sunrise05:4609:46
Sunset20:3900:39
Evening civil twilight21:1201:12

Current date and time
Zulu (UTC)  06-Jul-2020 02:52:33
Local (UTC-4)  05-Jul-2020 22:52:33
 
METAR
KCXY 
9nm NE 
060156Z AUTO 00000KT 10SM CLR 29/19 A2996 RMK AO2 SLP143 T02940194 $
KMDT 
13nm E 
060156Z 21010KT 10SM FEW100 BKN250 29/22 A2996 RMK AO2 SLP143 T02940217
KTHV 
16nm SE 
060153Z AUTO 20006KT 10SM CLR 27/20 A2998 RMK AO2 SLP150 T02720200 $
TAF
KMDT 
13nm E 
052113Z 0521/0618 26005KT P6SM SCT070 FM060100 18002KT P6SM SKC FM061000 00000KT 6SM BR VCFG FEW008 FM061200 17003KT P6SM FEW250
NOTAMs
Click for the latest NOTAMs
NOTAMs are issued by the DoD/FAA and will open in a separate window not controlled by AirNav.

 

 
 

Would you like to see your business listed on this page?

 If your business provides an interesting product or service to pilots, flight crews, aircraft, or users of the Williams Grove Heliport, you should consider listing it here.  To start the listing process, click on the button below
 
Add a business
 

Other Pages about Williams Grove Heliport

Update a link
 
Copyright © AirNav, LLC. All rights reserved. Privacy Policy  Contact